TimeEST,TemperatureF,Dew PointF,Humidity,Sea Level PressureIn,VisibilityMPH,Wind Direction,Wind SpeedMPH,Gust SpeedMPH,PrecipitationIn,Events,Conditions,WindDirDegrees,DateUTC
12:53 AM,36.0,25.0,64,30.15,10.0,SW,4.6,-,N/A,,Overcast,220,2013-01-06 05:53:00
1:53 AM,35.1,25.0,67,30.14,10.0,SSW,5.8,-,N/A,,Overcast,210,2013-01-06 06:53:00
2:53 AM,33.1,25.0,72,30.14,10.0,SSW,4.6,-,N/A,,Overcast,200,2013-01-06 07:53:00
3:53 AM,30.9,24.1,76,30.12,10.0,SSW,5.8,-,N/A,,Partly Cloudy,200,2013-01-06 08:53:00
4:53 AM,30.9,24.1,76,30.10,10.0,South,3.5,-,N/A,,Overcast,180,2013-01-06 09:53:00
5:53 AM,32.0,25.0,75,30.09,10.0,SSW,4.6,-,N/A,,Overcast,200,2013-01-06 10:53:00
7:53 AM,34.0,26.1,73,30.08,10.0,SSW,8.1,-,N/A,,Overcast,200,2013-01-06 12:53:00
8:53 AM,35.1,26.1,70,30.08,10.0,SW,5.8,-,N/A,,Overcast,220,2013-01-06 13:53:00
9:53 AM,36.0,27.0,70,30.09,10.0,SSW,6.9,-,N/A,,Overcast,210,2013-01-06 14:53:00
10:53 AM,37.0,27.0,67,30.08,10.0,SSW,8.1,-,N/A,,Overcast,210,2013-01-06 15:53:00
11:53 AM,37.0,28.0,70,30.05,10.0,SSW,8.1,-,N/A,,Overcast,200,2013-01-06 16:53:00
12:53 PM,37.9,28.0,68,30.02,10.0,SW,6.9,-,N/A,,Overcast,220,2013-01-06 17:53:00
1:53 PM,37.9,28.0,68,30.02,10.0,SSW,6.9,-,N/A,,Overcast,210,2013-01-06 18:53:00
2:53 PM,37.9,28.0,68,30.03,10.0,SW,5.8,-,N/A,,Overcast,230,2013-01-06 19:53:00
3:53 PM,36.0,30.0,79,30.06,4.0,West,4.6,-,0.00,Rain,Light Rain,270,2013-01-06 20:53:00
4:49 PM,35.6,32.0,87,30.06,5.0,SW,3.5,-,0.02,,Overcast,230,2013-01-06 21:49:00
4:53 PM,35.1,32.0,89,30.09,5.0,WSW,4.6,-,0.02,,Overcast,240,2013-01-06 21:53:00
5:22 PM,35.6,32.0,87,30.07,6.0,WSW,6.9,-,0.00,,Overcast,250,2013-01-06 22:22:00
5:53 PM,35.1,32.0,89,30.10,8.0,WSW,8.1,-,0.00,,Overcast,250,2013-01-06 22:53:00
6:03 PM,35.6,32.0,87,30.08,8.0,WSW,8.1,-,N/A,,Overcast,250,2013-01-06 23:03:00
6:18 PM,35.6,32.0,87,30.09,8.0,West,8.1,-,N/A,,Overcast,260,2013-01-06 23:18:00
6:53 PM,35.1,32.0,89,30.14,7.0,West,8.1,-,N/A,,Overcast,260,2013-01-06 23:53:00
7:09 PM,35.6,30.2,81,30.13,8.0,WNW,13.8,20.7,N/A,,Overcast,300,2013-01-07 00:09:00
7:53 PM,32.0,28.0,85,30.18,10.0,NW,10.4,-,N/A,,Overcast,310,2013-01-07 00:53:00
8:53 PM,30.9,26.1,82,30.22,7.0,WNW,12.7,-,N/A,,Overcast,300,2013-01-07 01:53:00
9:20 PM,30.2,24.8,80,30.20,8.0,West,9.2,-,N/A,,Overcast,270,2013-01-07 02:20:00
9:53 PM,30.0,25.0,82,30.25,8.0,West,11.5,-,N/A,,Overcast,280,2013-01-07 02:53:00
10:53 PM,30.0,23.0,75,30.27,7.0,West,11.5,-,N/A,,Overcast,270,2013-01-07 03:53:00
11:53 PM,28.9,23.0,78,30.31,6.0,West,9.2,-,N/A,,Haze,280,2013-01-07 04:53:00